TimeEDT,TemperatureF,Dew PointF,Humidity,Sea Level PressureIn,VisibilityMPH,Wind Direction,Wind SpeedMPH,Gust SpeedMPH,PrecipitationIn,Events,Conditions,WindDirDegrees,DateUTC
12:03 AM,69.8,69.8,100,30.04,2.0,Calm,Calm,-,N/A,,Mostly Cloudy,0,2013-07-21 04:03:00
12:10 AM,69.8,69.8,100,30.03,4.0,Calm,Calm,-,N/A,,Scattered Clouds,0,2013-07-21 04:10:00
12:53 AM,69.1,68.0,96,29.95,5.0,Calm,Calm,-,N/A,,Clear,0,2013-07-21 04:53:00
1:38 AM,69.8,68.0,94,30.01,2.5,Calm,Calm,-,N/A,,Partly Cloudy,0,2013-07-21 05:38:00
1:53 AM,69.1,68.0,96,29.95,5.0,Calm,Calm,-,N/A,,Clear,0,2013-07-21 05:53:00
2:22 AM,69.8,68.0,94,30.00,2.5,South,3.5,-,N/A,,Scattered Clouds,180,2013-07-21 06:22:00
2:26 AM,69.8,68.0,94,30.00,1.8,Calm,Calm,-,N/A,,Mostly Cloudy,0,2013-07-21 06:26:00
2:35 AM,69.8,68.0,94,29.99,0.8,Calm,Calm,-,N/A,,Mostly Cloudy,0,2013-07-21 06:35:00
2:53 AM,69.1,68.0,96,29.94,0.5,Calm,Calm,-,N/A,Fog,Fog,0,2013-07-21 06:53:00
3:09 AM,69.8,66.2,88,30.00,0.8,Calm,Calm,-,N/A,,Mist,0,2013-07-21 07:09:00
3:16 AM,69.8,66.2,88,30.00,0.8,Calm,Calm,-,N/A,,Mist,0,2013-07-21 07:16:00
3:49 AM,69.8,66.2,88,29.99,0.2,Calm,Calm,-,N/A,Fog,Fog,0,2013-07-21 07:49:00
3:53 AM,69.1,66.9,93,29.94,0.2,South,3.5,-,N/A,Fog,Fog,180,2013-07-21 07:53:00
4:47 AM,68.0,66.2,94,29.99,0.5,Calm,Calm,-,N/A,Fog,Fog,0,2013-07-21 08:47:00
4:53 AM,68.0,66.9,96,29.94,0.5,Calm,Calm,-,N/A,Fog,Fog,0,2013-07-21 08:53:00
5:08 AM,68.0,66.2,94,29.99,0.2,Calm,Calm,-,N/A,Fog,Fog,0,2013-07-21 09:08:00
5:20 AM,68.0,66.2,94,29.99,0.5,Calm,Calm,-,N/A,Fog,Fog,0,2013-07-21 09:20:00
5:53 AM,68.0,66.9,96,29.94,0.5,Calm,Calm,-,N/A,Fog,Fog,0,2013-07-21 09:53:00
6:23 AM,68.0,66.2,94,29.99,1.5,Calm,Calm,-,N/A,,Overcast,0,2013-07-21 10:23:00
6:35 AM,68.0,66.2,94,29.99,0.2,Calm,Calm,-,N/A,Fog,Fog,0,2013-07-21 10:35:00
6:53 AM,68.0,66.9,96,29.94,0.2,Calm,Calm,-,N/A,Fog,Fog,0,2013-07-21 10:53:00
7:53 AM,69.1,66.9,93,29.96,0.2,Calm,Calm,-,N/A,Fog,Fog,0,2013-07-21 11:53:00
8:13 AM,69.8,68.0,94,30.02,0.8,Calm,Calm,-,N/A,,Mist,0,2013-07-21 12:13:00
8:43 AM,69.8,68.0,94,30.04,1.2,Calm,Calm,-,N/A,,Overcast,0,2013-07-21 12:43:00
8:53 AM,70.0,68.0,93,29.98,1.5,Calm,Calm,-,N/A,,Overcast,0,2013-07-21 12:53:00
9:04 AM,69.8,68.0,94,30.03,3.0,Calm,Calm,-,N/A,,Overcast,0,2013-07-21 13:04:00
9:13 AM,69.8,68.0,94,30.03,1.8,Calm,Calm,-,N/A,,Overcast,0,2013-07-21 13:13:00
9:21 AM,69.8,69.8,100,30.04,3.0,Calm,Calm,-,N/A,,Overcast,0,2013-07-21 13:21:00
9:53 AM,70.0,68.0,93,29.99,7.0,Calm,Calm,-,N/A,,Overcast,0,2013-07-21 13:53:00
10:39 AM,73.4,69.8,88,30.05,10.0,SSW,4.6,-,N/A,,Overcast,200,2013-07-21 14:39:00
10:53 AM,73.9,70.0,87,29.99,10.0,Calm,Calm,-,N/A,,Mostly Cloudy,0,2013-07-21 14:53:00
11:04 AM,78.8,69.8,74,30.05,10.0,Calm,Calm,-,N/A,,Scattered Clouds,0,2013-07-21 15:04:00
11:53 AM,80.1,72.0,76,29.98,10.0,Calm,Calm,-,N/A,,Clear,0,2013-07-21 15:53:00
12:53 PM,82.0,72.0,71,29.96,10.0,Variable,3.5,-,N/A,,Clear,0,2013-07-21 16:53:00
1:53 PM,84.9,70.0,61,29.94,10.0,South,3.5,-,N/A,,Clear,190,2013-07-21 17:53:00
2:14 PM,82.4,69.8,66,30.00,10.0,SSE,3.5,-,N/A,Thunderstorm,Scattered Clouds,160,2013-07-21 18:14:00
2:51 PM,75.2,71.6,89,29.99,7.0,WSW,10.4,-,0.01,Rain,Rain,250,2013-07-21 18:51:00
2:53 PM,75.9,70.0,82,29.93,6.0,WSW,11.5,-,0.01,Rain,Rain,250,2013-07-21 18:53:00
3:16 PM,75.2,71.6,89,29.99,10.0,SW,5.8,-,0.00,Rain-Thunderstorm,Light Rain,230,2013-07-21 19:16:00
3:31 PM,73.4,69.8,88,29.99,9.0,SW,5.8,-,0.01,Rain,Light Rain,230,2013-07-21 19:31:00
3:53 PM,75.0,70.0,84,29.93,10.0,West,5.8,-,0.02,,Partly Cloudy,270,2013-07-21 19:53:00
4:53 PM,75.0,70.0,84,29.93,10.0,NW,3.5,-,N/A,,Mostly Cloudy,310,2013-07-21 20:53:00
5:53 PM,75.0,70.0,84,29.92,9.0,West,6.9,-,0.00,Rain,Light Rain,270,2013-07-21 21:53:00
6:53 PM,73.9,70.0,87,29.92,10.0,Calm,Calm,-,0.01,,Mostly Cloudy,0,2013-07-21 22:53:00
7:53 PM,73.9,71.1,91,29.91,10.0,Calm,Calm,-,0.00,Rain,Light Rain,0,2013-07-21 23:53:00
8:53 PM,73.0,71.1,93,29.94,9.0,Calm,Calm,-,0.01,,Clear,0,2013-07-22 00:53:00
9:03 PM,73.4,71.6,94,30.00,8.0,Calm,Calm,-,N/A,,Scattered Clouds,0,2013-07-22 01:03:00
9:53 PM,73.0,71.1,93,29.95,9.0,Calm,Calm,-,N/A,,Clear,0,2013-07-22 01:53:00
10:53 PM,73.0,70.0,90,29.96,10.0,Calm,Calm,-,N/A,,Partly Cloudy,0,2013-07-22 02:53:00
11:53 PM,73.0,70.0,90,29.96,10.0,Calm,Calm,-,N/A,,Clear,0,2013-07-22 03:53:00